BREEZE-M DEB 1 41324U 12026L 21100.99506669 -.00000144 00000-0 00000-0 0 9999 2 41324 11.6689 288.7693 4133821 125.6757 280.0596 1.79764283 34313 NAVSTAR 76 (USA 266) 1 41328U 16007A 21111.22669446 .00000046 00000-0 00000-0 0 9997 2 41328 54.8464 164.2262 0050193 225.0820 134.5836 2.00564868 38078